RYR3BW EIDW-EGSS

Flight info

Callsign RYR3BW
Flight time 0h 50m
Altitude 33000
Route ENDEQ1E ENDEQ Q36 NOSLO Z197 LISTO
Aircraft B738/M-SDE2E3FGHIRWXY/LB1

Departure

Time 2026-05-06 17:43
Airport Dublin Airport (EIDW)

Arrival

Time 2026-05-06 18:33
Airport London Stansted Airport (EGSS)
Time Latitude Longitude Altitude Speed Heading
2026-05-06 17:05 53.43011 -6.25009 210 ft 0 kts
2026-05-06 17:33 53.43009 -6.25009 210 ft 1 kts
2026-05-06 17:33 53.42993 -6.25012 215 ft 2 kts
2026-05-06 17:33 53.42975 -6.25013 214 ft 3 kts 348°
2026-05-06 17:33 53.42959 -6.25001 221 ft 3 kts 308°
2026-05-06 17:34 53.42951 -6.24973 214 ft 3 kts 278°
2026-05-06 17:34 53.42950 -6.24946 218 ft 1 kts 275°
2026-05-06 17:34 53.42949 -6.24938 218 ft 0 kts 275°
2026-05-06 17:36 53.42953 -6.25007 210 ft 7 kts 275°
2026-05-06 17:36 53.42961 -6.25152 210 ft 14 kts 275°
2026-05-06 17:37 53.42935 -6.25306 214 ft 14 kts 247°
2026-05-06 17:37 53.42883 -6.25430 210 ft 13 kts 223°
2026-05-06 17:37 53.42873 -6.25446 210 ft 0 kts 223°
2026-05-06 17:37 53.42834 -6.25508 212 ft 15 kts 223°
2026-05-06 17:38 53.42752 -6.25648 216 ft 22 kts 224°
2026-05-06 17:38 53.42661 -6.25743 210 ft 17 kts 165°
2026-05-06 17:38 53.42524 -6.25721 215 ft 21 kts 211°
2026-05-06 17:38 53.42385 -6.25952 210 ft 34 kts 226°
2026-05-06 17:39 53.42270 -6.26214 213 ft 25 kts 261°
2026-05-06 17:39 53.42279 -6.26525 218 ft 20 kts 275°
2026-05-06 17:39 53.42291 -6.26752 210 ft 19 kts 275°
2026-05-06 17:39 53.42303 -6.26971 210 ft 19 kts 276°
2026-05-06 17:40 53.42318 -6.27231 210 ft 23 kts 275°
2026-05-06 17:40 53.42331 -6.27489 210 ft 22 kts 275°
2026-05-06 17:40 53.42345 -6.27742 210 ft 21 kts 275°
2026-05-06 17:40 53.42358 -6.27985 210 ft 21 kts 276°
2026-05-06 17:41 53.42372 -6.28221 210 ft 20 kts 275°
2026-05-06 17:41 53.42385 -6.28452 210 ft 20 kts 275°
2026-05-06 17:41 53.42400 -6.28701 210 ft 24 kts 275°
2026-05-06 17:41 53.42411 -6.28921 214 ft 12 kts 271°
2026-05-06 17:42 53.42353 -6.29072 210 ft 19 kts 191°
2026-05-06 17:42 53.42244 -6.28999 208 ft 18 kts 103°
2026-05-06 17:42 53.42227 -6.28701 210 ft 50 kts 95°
2026-05-06 17:42 53.42171 -6.27696 209 ft 121 kts 94°
2026-05-06 17:43 53.42067 -6.25988 375 ft 162 kts 97°
2026-05-06 17:43 53.41984 -6.24060 1061 ft 170 kts 91°
2026-05-06 17:43 53.41970 -6.22047 1877 ft 171 kts 95°
2026-05-06 17:43 53.41839 -6.19956 2446 ft 196 kts 97°
2026-05-06 17:44 53.41667 -6.17527 2713 ft 223 kts 96°
2026-05-06 17:44 53.41493 -6.14830 3120 ft 240 kts 95°
2026-05-06 17:44 53.41318 -6.11959 3541 ft 258 kts 95°
2026-05-06 17:44 53.41138 -6.08882 4138 ft 270 kts 95°
2026-05-06 17:45 53.40956 -6.05752 5137 ft 270 kts 95°
2026-05-06 17:45 53.40925 -6.02578 5928 ft 277 kts 85°
2026-05-06 17:45 53.41149 -5.99354 6714 ft 280 kts 82°
2026-05-06 17:45 53.41419 -5.96100 7476 ft 283 kts 82°
2026-05-06 17:46 53.41682 -5.92804 8252 ft 287 kts 82°
2026-05-06 17:46 53.41926 -5.89472 9045 ft 289 kts 83°
2026-05-06 17:46 53.42159 -5.86117 9856 ft 291 kts 83°
2026-05-06 17:46 53.42387 -5.82736 10586 ft 293 kts 83°
2026-05-06 17:47 53.42617 -5.79319 11340 ft 296 kts 83°
2026-05-06 17:47 53.42853 -5.75867 12112 ft 299 kts 83°
2026-05-06 17:47 53.43091 -5.72390 12876 ft 303 kts 83°
2026-05-06 17:47 53.43335 -5.68815 13419 ft 314 kts 83°
2026-05-06 17:48 53.43587 -5.65111 13973 ft 324 kts 83°
2026-05-06 17:48 53.43842 -5.61340 14470 ft 334 kts 83°
2026-05-06 17:48 53.44107 -5.57413 14989 ft 344 kts 83°
2026-05-06 17:48 53.44377 -5.53375 15500 ft 353 kts 83°
2026-05-06 17:49 53.44631 -5.49223 16025 ft 361 kts 86°
2026-05-06 17:49 53.44633 -5.44964 16567 ft 369 kts 92°
2026-05-06 17:49 53.44481 -5.40632 17248 ft 373 kts 94°
2026-05-06 17:49 53.44304 -5.36273 17979 ft 376 kts 94°
2026-05-06 17:50 53.44141 -5.31875 18613 ft 379 kts 93°
2026-05-06 17:50 53.44000 -5.27445 19219 ft 382 kts 92°
2026-05-06 17:50 53.43873 -5.22977 19847 ft 384 kts 92°
2026-05-06 17:50 53.43748 -5.18479 20455 ft 387 kts 92°
2026-05-06 17:51 53.43623 -5.14012 21035 ft 391 kts 92°
2026-05-06 17:51 53.43492 -5.09441 21616 ft 394 kts 92°
2026-05-06 17:51 53.43359 -5.04841 22198 ft 396 kts 92°
2026-05-06 17:51 53.43223 -5.00205 22763 ft 400 kts 92°
2026-05-06 17:52 53.43086 -4.95533 23317 ft 403 kts 92°
2026-05-06 17:52 53.42945 -4.90825 23810 ft 406 kts 92°
2026-05-06 17:52 53.42800 -4.86073 24268 ft 409 kts 92°
2026-05-06 17:52 53.42645 -4.81299 24731 ft 411 kts 92°
2026-05-06 17:53 53.42482 -4.76508 25183 ft 413 kts 92°
2026-05-06 17:53 53.42314 -4.71680 25621 ft 416 kts 92°
2026-05-06 17:53 53.42142 -4.66822 26059 ft 418 kts 92°
2026-05-06 17:53 53.41969 -4.61941 26514 ft 420 kts 92°
2026-05-06 17:54 53.41794 -4.57052 27041 ft 419 kts 92°
2026-05-06 17:54 53.41618 -4.52184 27654 ft 417 kts 92°
2026-05-06 17:54 53.41442 -4.47355 28284 ft 414 kts 92°
2026-05-06 17:54 53.41265 -4.42552 28869 ft 413 kts 92°
2026-05-06 17:55 53.41087 -4.37757 29412 ft 412 kts 91°
2026-05-06 17:55 53.40908 -4.32979 29979 ft 410 kts 91°
2026-05-06 17:55 53.40727 -4.28223 30472 ft 408 kts 91°
2026-05-06 17:55 53.40545 -4.23482 30927 ft 406 kts 91°
2026-05-06 17:56 53.40364 -4.18823 31348 ft 405 kts 91°
2026-05-06 17:56 53.40180 -4.14108 31760 ft 405 kts 91°
2026-05-06 17:56 53.39994 -4.09400 32182 ft 403 kts 91°
2026-05-06 17:56 53.39808 -4.04711 32595 ft 402 kts 91°
2026-05-06 17:57 53.39620 -4.00035 32976 ft 402 kts 91°
2026-05-06 17:57 53.39430 -3.95323 32998 ft 409 kts 91°
2026-05-06 17:57 53.39057 -3.85837 33006 ft 405 kts 91°
2026-05-06 17:58 53.38750 -3.78077 33005 ft 400 kts 91°
2026-05-06 17:58 53.38375 -3.68756 33023 ft 402 kts 91°
2026-05-06 17:59 53.37403 -3.57935 33025 ft 408 kts 101°
2026-05-06 17:59 53.36013 -3.48549 33023 ft 422 kts 101°
2026-05-06 18:00 53.34868 -3.40496 33035 ft 434 kts 101°
2026-05-06 18:00 53.33413 -3.30526 33027 ft 447 kts 103°
2026-05-06 18:01 53.31720 -3.20369 33029 ft 459 kts 104°
2026-05-06 18:01 53.29973 -3.09977 33031 ft 468 kts 104°
2026-05-06 18:02 53.28229 -2.99479 33011 ft 468 kts 104°
2026-05-06 18:02 53.26486 -2.88989 33013 ft 468 kts 104°
2026-05-06 18:03 53.24722 -2.78519 33017 ft 468 kts 104°
2026-05-06 18:03 53.22902 -2.68159 33025 ft 468 kts 105°
2026-05-06 18:04 53.21055 -2.57745 33016 ft 468 kts 105°
2026-05-06 18:04 53.19211 -2.47351 33021 ft 467 kts 105°
2026-05-06 18:05 53.17369 -2.37001 33006 ft 457 kts 105°
2026-05-06 18:05 53.16474 -2.32001 33005 ft 443 kts 105°
2026-05-06 18:05 53.15606 -2.27170 32995 ft 428 kts 106°
2026-05-06 18:06 53.14469 -2.22648 33010 ft 421 kts 120°
2026-05-06 18:06 53.12794 -2.18651 33033 ft 422 kts 131°
2026-05-06 18:06 53.10679 -2.15250 33016 ft 423 kts 143°
2026-05-06 18:06 53.08311 -2.12319 32715 ft 426 kts 144°
2026-05-06 18:07 53.05916 -2.09474 32414 ft 420 kts 145°
2026-05-06 18:07 53.03541 -2.06672 32032 ft 417 kts 145°
2026-05-06 18:07 53.01192 -2.03884 31653 ft 413 kts 145°
2026-05-06 18:07 52.98870 -2.01104 31280 ft 410 kts 145°
2026-05-06 18:08 52.96601 -1.98371 30917 ft 407 kts 145°
2026-05-06 18:08 52.94321 -1.95615 30548 ft 404 kts 145°
2026-05-06 18:08 52.92053 -1.92873 30186 ft 402 kts 145°
2026-05-06 18:08 52.89797 -1.90146 29776 ft 399 kts 145°
2026-05-06 18:09 52.87561 -1.87447 29386 ft 395 kts 145°
2026-05-06 18:09 52.85352 -1.84785 29016 ft 391 kts 145°
2026-05-06 18:09 52.83161 -1.82148 28637 ft 387 kts 145°
2026-05-06 18:09 52.80990 -1.79538 28273 ft 384 kts 146°
2026-05-06 18:10 52.78832 -1.76948 27900 ft 381 kts 146°
2026-05-06 18:10 52.76699 -1.74391 27520 ft 377 kts 146°
2026-05-06 18:10 52.74571 -1.71885 27155 ft 374 kts 149°
2026-05-06 18:10 52.72340 -1.69751 26847 ft 368 kts 154°
2026-05-06 18:11 52.70079 -1.67808 26479 ft 366 kts 155°
2026-05-06 18:11 52.67846 -1.65941 26126 ft 363 kts 155°
2026-05-06 18:11 52.65599 -1.64063 25776 ft 361 kts 155°
2026-05-06 18:11 52.63365 -1.62184 25436 ft 359 kts 155°
2026-05-06 18:12 52.61150 -1.60307 25082 ft 357 kts 155°
2026-05-06 18:12 52.58946 -1.58431 24734 ft 356 kts 154°
2026-05-06 18:12 52.56755 -1.56562 24390 ft 354 kts 154°
2026-05-06 18:12 52.54569 -1.54695 24046 ft 353 kts 154°
2026-05-06 18:13 52.52392 -1.52836 23703 ft 351 kts 154°
2026-05-06 18:13 52.50226 -1.50989 23322 ft 350 kts 154°
2026-05-06 18:13 52.48070 -1.49151 22954 ft 348 kts 154°
2026-05-06 18:13 52.45926 -1.47325 22592 ft 346 kts 154°
2026-05-06 18:14 52.43799 -1.45516 22261 ft 343 kts 154°
2026-05-06 18:14 52.41685 -1.43719 21909 ft 341 kts 154°
2026-05-06 18:14 52.39587 -1.41939 21569 ft 339 kts 154°
2026-05-06 18:14 52.37502 -1.40171 21233 ft 337 kts 154°
2026-05-06 18:15 52.35428 -1.38414 20903 ft 334 kts 154°
2026-05-06 18:15 52.33368 -1.36670 20581 ft 332 kts 154°
2026-05-06 18:15 52.31344 -1.34961 20258 ft 331 kts 154°
2026-05-06 18:15 52.29306 -1.33237 19928 ft 329 kts 153°
2026-05-06 18:16 52.27303 -1.31417 19605 ft 330 kts 151°
2026-05-06 18:16 52.25311 -1.29524 19293 ft 333 kts 151°
2026-05-06 18:16 52.23304 -1.27602 18961 ft 336 kts 150°
2026-05-06 18:16 52.21274 -1.25665 18627 ft 339 kts 151°
2026-05-06 18:17 52.19234 -1.23729 18285 ft 340 kts 151°
2026-05-06 18:17 52.17186 -1.21794 17898 ft 341 kts 151°
2026-05-06 18:17 52.15134 -1.19861 17520 ft 339 kts 151°
2026-05-06 18:17 52.13099 -1.17950 17171 ft 336 kts 151°
2026-05-06 18:18 52.11079 -1.16054 16834 ft 334 kts 151°
2026-05-06 18:18 52.09075 -1.14177 16495 ft 331 kts 151°
2026-05-06 18:18 52.07083 -1.12313 16162 ft 329 kts 151°
2026-05-06 18:18 52.05107 -1.10467 15840 ft 326 kts 151°
2026-05-06 18:19 52.03143 -1.08634 15512 ft 324 kts 151°
2026-05-06 18:19 52.01292 -1.06578 15154 ft 323 kts 135°
2026-05-06 18:19 52.00067 -1.03620 14856 ft 320 kts 111°
2026-05-06 18:19 51.99595 -1.00134 14547 ft 316 kts 91°
2026-05-06 18:20 51.99560 -0.96589 14246 ft 314 kts 89°
2026-05-06 18:20 51.99578 -0.93048 13931 ft 313 kts 88°
2026-05-06 18:20 51.99604 -0.89523 13593 ft 312 kts 88°
2026-05-06 18:20 51.99624 -0.86009 13253 ft 311 kts 88°
2026-05-06 18:21 51.99637 -0.82493 12636 ft 314 kts 88°
2026-05-06 18:21 51.99495 -0.78958 11988 ft 315 kts 98°
2026-05-06 18:21 51.99349 -0.75469 11744 ft 307 kts 88°
2026-05-06 18:21 51.99412 -0.72035 11488 ft 303 kts 86°
2026-05-06 18:22 51.99496 -0.68638 11226 ft 299 kts 86°
2026-05-06 18:22 51.99556 -0.65277 10968 ft 297 kts 87°
2026-05-06 18:22 51.99589 -0.61975 10726 ft 295 kts 88°
2026-05-06 18:22 51.99604 -0.58661 10481 ft 294 kts 88°
2026-05-06 18:23 51.99607 -0.55364 10237 ft 292 kts 88°
2026-05-06 18:23 51.99603 -0.52073 9994 ft 291 kts 88°
2026-05-06 18:23 51.99596 -0.48807 9738 ft 288 kts 88°
2026-05-06 18:23 51.99586 -0.45577 9467 ft 285 kts 89°
2026-05-06 18:24 51.99574 -0.42378 9232 ft 281 kts 89°
2026-05-06 18:24 51.99547 -0.39235 9008 ft 277 kts 94°
2026-05-06 18:24 51.98969 -0.36272 8675 ft 279 kts 121°
2026-05-06 18:24 51.97802 -0.33768 8357 ft 278 kts 129°
2026-05-06 18:25 51.96548 -0.31386 7944 ft 276 kts 130°
2026-05-06 18:25 51.95302 -0.29054 7526 ft 272 kts 130°
2026-05-06 18:25 51.94063 -0.26752 7120 ft 268 kts 131°
2026-05-06 18:25 51.92843 -0.24490 6720 ft 265 kts 131°
2026-05-06 18:26 51.91614 -0.22299 6318 ft 261 kts 134°
2026-05-06 18:26 51.90329 -0.20247 5896 ft 258 kts 135°
2026-05-06 18:26 51.89046 -0.18239 5509 ft 254 kts 135°
2026-05-06 18:26 51.87786 -0.16280 5168 ft 249 kts 136°
2026-05-06 18:27 51.86562 -0.14380 4833 ft 245 kts 136°
2026-05-06 18:27 51.85340 -0.12490 4483 ft 241 kts 136°
2026-05-06 18:27 51.84142 -0.10650 4171 ft 233 kts 135°
2026-05-06 18:27 51.82968 -0.08875 3803 ft 228 kts 136°
2026-05-06 18:28 51.81812 -0.07157 3435 ft 223 kts 135°
2026-05-06 18:28 51.80695 -0.05455 3055 ft 218 kts 128°
2026-05-06 18:28 51.79830 -0.03490 2708 ft 215 kts 121°
2026-05-06 18:28 51.79063 -0.01451 2550 ft 208 kts 110°
2026-05-06 18:29 51.78771 0.00782 2515 ft 201 kts 95°
2026-05-06 18:29 51.78559 0.02945 2488 ft 193 kts 95°
2026-05-06 18:29 51.78632 0.05004 2507 ft 179 kts 72°
2026-05-06 18:29 51.78967 0.06938 2495 ft 180 kts 63°
2026-05-06 18:30 51.79497 0.08771 2507 ft 181 kts 61°
2026-05-06 18:30 51.80101 0.10539 2453 ft 179 kts 48°
2026-05-06 18:30 51.80913 0.11965 2249 ft 166 kts 44°
2026-05-06 18:30 51.81695 0.13226 2063 ft 151 kts 41°
2026-05-06 18:31 51.82422 0.14333 1853 ft 138 kts 39°
2026-05-06 18:31 51.83112 0.15372 1656 ft 135 kts 39°
2026-05-06 18:31 51.83808 0.16419 1465 ft 138 kts 40°
2026-05-06 18:31 51.84512 0.17480 1259 ft 140 kts 40°
2026-05-06 18:32 51.85234 0.18548 1094 ft 143 kts 38°
2026-05-06 18:32 51.85961 0.19643 923 ft 140 kts 38°
2026-05-06 18:32 51.86696 0.20735 675 ft 145 kts 43°
2026-05-06 18:32 51.87420 0.21865 459 ft 146 kts 39°
2026-05-06 18:33 51.88146 0.22947 335 ft 132 kts 41°
2026-05-06 18:33 51.88711 0.23794 337 ft 62 kts 44°
2026-05-06 18:33 51.88873 0.24172 338 ft 46 kts 71°
2026-05-06 18:33 51.88918 0.24453 350 ft 23 kts 86°
2026-05-06 18:34 51.88970 0.24669 350 ft 22 kts 43°
2026-05-06 18:34 51.89083 0.24841 348 ft 22 kts 43°
2026-05-06 18:34 51.89192 0.25007 348 ft 21 kts 45°
2026-05-06 18:34 51.89278 0.25197 348 ft 21 kts 46°
2026-05-06 18:35 51.89380 0.25354 348 ft 18 kts 42°
2026-05-06 18:35 51.89416 0.25477 348 ft 13 kts 118°
2026-05-06 18:35 51.89369 0.25600 350 ft 13 kts 116°
2026-05-06 18:35 51.89313 0.25708 351 ft 12 kts 133°
2026-05-06 18:36 51.89260 0.25805 351 ft 11 kts 131°
2026-05-06 18:36 51.89252 0.25900 355 ft 6 kts 43°
2026-05-06 18:36 51.89262 0.25914 358 ft 1 kts 43°
2026-05-06 18:36 51.89268 0.25924 351 ft 0 kts 43°
2026-05-06 18:37 51.89264 0.25918 351 ft 0 kts 44°